Home   Weather   Tychy   Past weeks

Flag for Poland Past Weather in Tychy, Poland — Yesterday and Last 2 Weeks

45 °F

Light rain. Fog.

Feels Like: 45 °F
Forecast: 36 / 48 °F
Wind: No wind

Location: Katowice Airport

Current Time: Oct 21, 2016 at 5:06:49 PM

Latest Report: Oct 21, 2016 at 4:30 PM

Visibility: 2 mi

Pressure: 29.92 "Hg

Humidity: 93%

Dew Point: 43 °F

Location of TychyLocation

Past Weather in Tychy — Graph


Tychy Temperature Yesterday

Maximum temperature yesterday: 46 °F (at 12:00 AM)
Minimum temperature yesterday: 43 °F (at 6:00 PM)
Average temperature yesterday: 45 °F

High & Low Weather Summary for the Past Weeks

High57 °F (Oct 15, 12:00 PM)100% (Oct 6, 11:00 PM)30.36 "Hg (Oct 6, 11:00 PM)
Low27 °F (Oct 7, 5:30 AM)58% (Oct 7, 12:30 PM)29.92 "Hg (Oct 21, 1:30 PM)
Average44 °F89%30.10 "Hg
* Reported Oct 6 4:00 PM — Oct 21 4:00 PM, Tychy, Weather by CustomWeather, © 2016

Note: Actual official high and low records may vary slightly from our data, if they occured in-between our weather recording intervals... More about our weather records


Tychy Weather History for the Previous 24 Hours

Scroll right to see more
Time TempWeatherWind HumidityBarometerVisibility
4:00 PM
Fri, Oct 21
45 °FLight rain. Fog.1 mph93%29.92 "Hg2 mi
3:30 PM45 °FLight rain. Fog.2 mph93%29.92 "Hg3 mi
3:00 PM45 °FLight rain. Fog.2 mph93%29.92 "Hg2 mi
2:30 PM45 °FLight rain. Fog.6 mph93%29.92 "Hg2 mi
2:00 PM45 °FLight rain. Fog.3 mph93%29.95 "Hg3 mi
1:30 PM45 °FLight rain. Fog.1 mph93%29.92 "Hg2 mi
1:00 PM45 °FLight rain. Fog.1 mph93%29.95 "Hg2 mi
12:30 PM45 °FLight rain. Fog.2 mph93%29.95 "Hg2 mi
12:00 PM45 °FLight rain. Fog.3 mph93%29.95 "Hg2 mi
11:30 AM43 °FLight rain. Fog.5 mph100%29.95 "Hg3 mi
11:00 AM43 °FFog.5 mph100%29.95 "Hg3 mi
10:30 AM43 °FFog.6 mph93%29.95 "Hg3 mi
10:00 AM43 °FFog.3 mph93%29.95 "Hg3 mi
9:30 AM43 °FFog.3 mph93%29.95 "Hg2 mi
9:00 AM41 °FFog.5 mph100%29.95 "Hg1 mi
8:30 AM41 °FFog.7 mph100%29.95 "Hg1 mi
8:00 AM41 °FFog.3 mph100%29.95 "Hg1 mi
7:30 AM41 °FFog.5 mph100%29.95 "Hg1 mi
7:00 AM41 °FFog.3 mph100%29.95 "Hg1 mi
6:30 AM41 °FQuite cool.5 mph100%29.95 "Hg1 mi
6:00 AM41 °FFog.5 mph100%29.95 "Hg1 mi
5:30 AM43 °FFog.5 mph93%29.95 "Hg2 mi
5:00 AM43 °FFog.5 mph93%29.95 "Hg3 mi
4:30 AM43 °FFog.6 mph93%29.95 "Hg2 mi
4:00 AM43 °FFog.3 mph93%29.95 "Hg2 mi
3:30 AM43 °FFog.3 mph100%29.95 "Hg2 mi
3:00 AM41 °FQuite cool.1 mph100%29.95 "Hg2 mi
2:30 AM41 °FFog.1 mph100%29.95 "Hg3 mi
2:00 AM43 °FLow clouds.2 mph93%29.95 "Hg5 mi
1:30 AM43 °FLow clouds.3 mph100%29.95 "HgN/A
1:00 AM43 °FOvercast.2 mph100%29.95 "Hg5 mi
12:30 AM43 °FLow clouds.2 mph100%29.95 "Hg4 mi
12:00 AM43 °FOvercast.2 mph100%29.98 "Hg4 mi
11:30 PM
Thu, Oct 20
43 °FLight rain. Overcast.3 mph100%29.98 "Hg4 mi
11:00 PM43 °FLight rain. Overcast.1 mph100%29.98 "Hg4 mi
10:30 PM43 °FLight rain. Overcast.1 mph100%29.98 "Hg4 mi
10:00 PM43 °FLight rain. Fog.1 mph100%29.98 "Hg3 mi
9:30 PM43 °FLight rain. Fog.1 mph100%29.98 "Hg2 mi
9:00 PM43 °FLight rain. Fog.1 mph100%29.98 "Hg2 mi
8:30 PM43 °FLight rain. Fog.1 mph100%29.98 "Hg2 mi
8:00 PM43 °FLight rain. Fog.1 mph100%29.98 "Hg3 mi
7:30 PM43 °FLight rain. Fog.2 mph100%29.98 "Hg2 mi
7:00 PM43 °FLight rain. Fog.2 mph100%29.98 "Hg2 mi
6:30 PM43 °FLight rain. Fog.1 mph100%30.01 "Hg1 mi
6:00 PM43 °FLight rain. Fog.1 mph100%30.01 "Hg2 mi
5:30 PM45 °FLight rain. Broken clouds.1 mph93%30.01 "Hg4 mi
5:00 PM45 °FLight rain. Broken clouds.2 mph93%30.01 "Hg5 mi
Weather by CustomWeather, © 2016

See weather overviewHow to use our weather pages